Regional Weather Roundup
Issued by NWS

Home | Current Version | Previous Version | Graphics & Text | Print | Product List | Glossary On
Versions: 1 2 3 4 5 6 7 8 9 10 11 12 13 14 15 16 17 18 19 20 21 22 23 24 25 26 27 28 29 30 31 32 33 34 35 36 37 38 39 40 41 42 43 44 45 46 47 48 49 50
000
ASUS45 KTFX 310310
RWRMT
MONTANA REGIONAL WEATHER ROUNDUP
NATIONAL WEATHER SERVICE GREAT FALLS MT
900 PM MDT MON MAY 30 2016

NOTE: "FAIR" INDICATES FEW OR NO CLOUDS BELOW 12000 FEET WITH NO
SIGNIFICANT WEATHER AND/OR OBSTRUCTIONS TO VISIBILITY.

MTZ001>007-043-310400-
WEST OF THE DIVIDE

CITY           SKY/WX    TMP DP  RH WIND       PRES   REMARKS
KALISPELL      PTCLDY    60  33  36 CALM      30.13S
MISSOULA       CLEAR     62  33  33 N5        30.13S
BUTTE          PTCLDY    55  22  27 N10       30.17R
MULLAN PASS    CLEAR     47  29  49 NW5       30.24S
ANACONDA         N/A     55  27  33 N5        30.16R
DEER LODGE       N/A     54  30  40 W3        30.17R
EUREKA           N/A     63  39  42 CALM      30.15F
HAMILTON         N/A     63  27  25 NW12      30.13R
LIBBY            N/A     61  36  39 CALM      30.14S
$$

MTZ008-052>055-310400-
SOUTHWEST MONTANA

CITY           SKY/WX    TMP DP  RH WIND       PRES   REMARKS
BOZEMAN        CLEAR     55  34  45 N3        30.12S
DILLON         CLEAR     56  26  31 NE10      30.12R
W YELLOWSTONE  CLEAR     50  19  29 NW3       30.17R
ENNIS          PTCLDY    55  25  30 N14G21    30.18R
$$

MTZ009-010-012-014-046-048-049-054-310400-
EAST SLOPES AND CENTRAL MONTANA

CITY           SKY/WX    TMP DP  RH WIND       PRES   REMARKS
CUT BANK       PTCLDY    49  40  71 N10       30.18R
GREAT FALLS    CLOUDY    52  37  56 N6        30.17R
MALMSTROM AFB  CLOUDY    52  40  64 NE7       30.17R
HELENA         CLEAR     56  37  49 NW3       30.14R
CHOTEAU          N/A     50  39  66 N10       30.20R
$$

MTZ011-013-016-021-045-047-050-051-310400-
NORTH CENTRAL MONTANA

CITY           SKY/WX    TMP DP  RH WIND       PRES   REMARKS
HAVRE          CLOUDY    48  33  56 NW21G26   30.08R
LEWISTOWN      MOCLDY    49  38  65 NW13      30.14S
N BAR RANCH      N/A     46  37  71 NW22G33   30.10S
CHINOOK          N/A     50  45  81 W21G26    30.03S
$$

MTZ017>020-022>027-061-062-310400-
NORTHEAST MONTANA

CITY           SKY/WX    TMP DP  RH WIND       PRES   REMARKS
GLASGOW        CLOUDY    51  42  71 W15       29.95F
JORDAN           N/A     51  38  60 NW14      30.01S
SIDNEY         CLOUDY    55  52  88 W9        29.93S
WOLF POINT     CLOUDY    54  45  71 W10       29.94F
POPLAR           N/A     54  46  76 W13       29.93S
$$

MTZ028>42-056>058-310400-
SOUTHCENTRAL AND SOUTHEAST MONTANA

CITY           SKY/WX    TMP DP  RH WIND       PRES   REMARKS
BAKER          MOCLDY    51  46  83 W9        29.99S
BILLINGS       PTCLDY    56  36  47 E6        30.10R
LIVINGSTON     CLEAR     52  36  54 W8        30.12R
MILES CITY     CLEAR     55  39  54 W16       30.01S
FORSYTH          N/A     55  37  50 W9        30.05S
$$

REGIONAL REPORTS...DAKOTAS

CITY           SKY/WX    TMP DP  RH WIND       PRES   REMARKS
WILLISTON      LGT RAIN  55  52  89 NW3       29.90F
MINOT          LGT RAIN  58  54  86 N5        29.86S
DICKINSON      CLOUDY    52  50  93 W17       29.91R
BEACH          CLOUDY    50  48  93 NW13      29.99S
CROSBY         CLOUDY    54  54 100 N10       29.91F
WATFORD CITY   CLOUDY    54  54 100 W6        29.91R
BISMARCK       LGT RAIN  57  54  89 N14       29.83R
GRAND FORKS    LGT RAIN  60  56  86 N9        29.84F
FARGO          CLOUDY    68  55  63 NW22G32   29.74R
BUFFALO SD       N/A     54  44  69 NW17      29.94R
RAPID CITY     LGT RAIN  54  45  71 NW17      29.99S
$$

REGIONAL REPORTS...WYOMING/IDAHO/WASHINGTON

CITY           SKY/WX    TMP DP  RH WIND       PRES   REMARKS
GILLETTE       CLOUDY    47  44  90 NW8       30.10R
SHERIDAN       PTCLDY    50  44  80 W7        30.11S
BUFFALO WY     CLOUDY    48  42  80 N14G24    30.13R
CODY           PTCLDY    50  36  57 NW5       30.13R
YELLOWSTONE LA   N/A     47  19  33 VRB5      30.22R
IDAHO FALLS    CLEAR     61  34  36 SW7       30.06S
SALMON         CLEAR     61  30  31 N7        30.08R
BOISE          CLEAR     71  28  20 W10       30.06S
SPOKANE        PTCLDY    68  27  21 W6        30.15F
$$

REGIONAL REPORTS...ALBERTA

CITY           SKY/WX    TMP DP  RH WIND       PRES   REMARKS
EDMONTON       MOCLDY    52  43  71 NW5       30.20R
CALGARY        PTCLDY    50  37  62 N14       30.21R
LETHBRIDGE     PTCLDY    54  41  62 N5        30.18R
MEDICINE HAT     N/A     48  46  93 NW13G23   30.10R
ONEFOUR          N/A     46  43  87 NW21G26     N/A
$$

REGIONAL REPORTS...SASKATCHEWAN

CITY           SKY/WX    TMP DP  RH WIND       PRES   REMARKS
SWIFT CURRENT  CLOUDY    52  50  93 N8        29.94R
REGINA         LGT RAIN  55  52  88 NE10      29.93R
SASKATOON      MOCLDY    57  46  67 NE8       30.00S
CYPRESS HILLS    N/A     43  41  93 NW8G17      N/A
VAL MARIE        N/A     50  46  87 NW9         N/A
ROCKGLEN         N/A     52  48  87 N6          N/A
$$



USA.gov is the U.S. government's official web portal to all federal, state and local government web resources and services.